CSN3177 ZGGG-ZBAD

Flight info

Callsign CSN3177
Flight time N/A
Altitude 40100
Route MIKIP9 MIKIP A461 BUBDA W56 REBIS/K0913S1250 W56 ORODO/K0902S1220 W62 KARVU/K0904S1250 W62 IGDID/K0900S1220 W62 TEKIL G212 BELAX BELAX5L
Aircraft A359/H-SDE2E3GHIJ3J4J5LM1ORWXY/LB1D1

Departure

Time N/A
Airport Guangzhou Baiyun International Airport (ZGGG)

Arrival

Time 2026-05-05 05:53
Airport Beijing Daxing International Airport (ZBAD)
Time Latitude Longitude Altitude Speed Heading
2026-05-05 05:17 38.02404 115.31016 40748 ft 449 kts 350°
2026-05-05 05:22 38.04978 115.30638 40741 ft 449 kts 350°
2026-05-05 05:22 38.11167 115.29751 40743 ft 447 kts 350°
2026-05-05 05:23 38.17337 115.28844 40744 ft 446 kts 349°
2026-05-05 05:23 38.23497 115.27923 40741 ft 446 kts 349°
2026-05-05 05:24 38.29656 115.27006 40736 ft 445 kts 349°
2026-05-05 05:24 38.35814 115.26092 40733 ft 445 kts 349°
2026-05-05 05:25 38.41967 115.25182 40738 ft 445 kts 350°
2026-05-05 05:25 38.48140 115.24266 40731 ft 445 kts 349°
2026-05-05 05:26 38.54267 115.23448 40734 ft 448 kts 354°
2026-05-05 05:26 38.60047 115.24310 40059 ft 454 kts 11°
2026-05-05 05:26 38.63005 115.25849 39320 ft 465 kts 23°
2026-05-05 05:27 38.65463 115.27946 38743 ft 474 kts 34°
2026-05-05 05:27 38.67758 115.30892 38051 ft 482 kts 46°
2026-05-05 05:27 38.70831 115.38672 36238 ft 506 kts 71°
2026-05-05 05:28 38.71401 115.43171 35273 ft 516 kts 80°
2026-05-05 05:28 38.71726 115.47770 34375 ft 519 kts 80°
2026-05-05 05:28 38.72365 115.52293 33441 ft 513 kts 68°
2026-05-05 05:28 38.73707 115.56296 32429 ft 507 kts 57°
2026-05-05 05:29 38.02901 115.30942 40788 ft 444 kts 350°
2026-05-05 05:29 38.05584 115.30550 40793 ft 443 kts 350°
2026-05-05 05:29 38.11768 115.29653 40741 ft 451 kts 350°
2026-05-05 05:30 38.14655 115.29227 40741 ft 454 kts 350°
2026-05-05 05:30 38.17322 115.28832 40741 ft 456 kts 350°
2026-05-05 05:31 38.23624 115.27897 40739 ft 459 kts 350°
2026-05-05 05:31 38.29993 115.26954 40740 ft 460 kts 350°
2026-05-05 05:32 38.42046 115.25174 40730 ft 446 kts 350°
2026-05-05 05:32 38.66158 115.28763 40565 ft 473 kts 36°
2026-05-05 05:33 38.71520 115.44554 37592 ft 513 kts 80°
2026-05-05 05:33 38.75972 115.61276 34034 ft 501 kts 54°
2026-05-05 05:33 38.83215 115.76862 29868 ft 516 kts 55°
2026-05-05 05:33 38.90418 115.92535 24715 ft 494 kts 57°
2026-05-05 05:34 38.95641 116.03949 22619 ft 467 kts 57°
2026-05-05 05:34 38.97279 116.07532 21950 ft 462 kts 57°
2026-05-05 05:34 38.98911 116.11061 21326 ft 457 kts 55°
2026-05-05 05:34 39.00885 116.14191 20716 ft 447 kts 40°
2026-05-05 05:35 39.03408 116.16423 20103 ft 436 kts 22°
2026-05-05 05:35 39.06263 116.17551 19499 ft 426 kts
2026-05-05 05:35 39.09177 116.17514 18900 ft 416 kts 348°
2026-05-05 05:35 39.11976 116.16655 18291 ft 412 kts 344°
2026-05-05 05:36 39.14791 116.16011 17649 ft 412 kts 349°
2026-05-05 05:36 39.17603 116.15539 17013 ft 409 kts 350°
2026-05-05 05:36 39.20412 116.15099 16406 ft 406 kts 350°
2026-05-05 05:36 39.23194 116.14669 15791 ft 402 kts 351°
2026-05-05 05:37 39.25986 116.14239 15095 ft 402 kts 351°
2026-05-05 05:37 39.28762 116.13821 14401 ft 401 kts 351°
2026-05-05 05:37 39.31524 116.13395 13716 ft 399 kts 351°
2026-05-05 05:37 39.34264 116.12973 12984 ft 396 kts 351°
2026-05-05 05:38 39.36989 116.12555 12281 ft 393 kts 350°
2026-05-05 05:38 39.39694 116.12137 11590 ft 391 kts 350°
2026-05-05 05:38 39.42392 116.11718 10914 ft 389 kts 350°
2026-05-05 05:38 39.44981 116.11322 10665 ft 358 kts 350°
2026-05-05 05:39 39.47348 116.10967 10529 ft 327 kts 349°
2026-05-05 05:39 39.49512 116.10637 10389 ft 301 kts 349°
2026-05-05 05:39 39.50183 116.10535 10361 ft 300 kts 349°
2026-05-05 05:40 39.50189 116.10535 10364 ft 300 kts 349°
2026-05-05 05:40 39.50389 116.10504 10343 ft 300 kts 349°
2026-05-05 05:40 39.52496 116.10182 10232 ft 303 kts 349°
2026-05-05 05:40 39.54588 116.09854 10114 ft 304 kts 349°
2026-05-05 05:41 39.56688 116.09527 9996 ft 304 kts 349°
2026-05-05 05:41 39.58784 116.09204 9881 ft 302 kts 349°
2026-05-05 05:41 39.60859 116.08885 9675 ft 300 kts 349°
2026-05-05 05:41 39.62933 116.08566 9335 ft 300 kts 349°
2026-05-05 05:42 39.65000 116.08251 8985 ft 300 kts 349°
2026-05-05 05:42 39.66760 116.07981 8677 ft 300 kts 349°
2026-05-05 05:42 39.68125 116.07772 8453 ft 299 kts 349°
2026-05-05 05:42 39.69181 116.07611 8269 ft 299 kts 349°
2026-05-05 05:43 39.70976 116.07336 7962 ft 299 kts 348°
2026-05-05 05:43 39.73060 116.07186 7593 ft 303 kts
2026-05-05 05:43 39.75057 116.08030 7241 ft 310 kts 31°
2026-05-05 05:43 39.76487 116.10058 7025 ft 302 kts 64°
2026-05-05 05:44 39.76994 116.12491 6921 ft 284 kts 89°
2026-05-05 05:44 39.77168 116.14986 6751 ft 275 kts 88°
2026-05-05 05:44 39.77376 116.17450 6464 ft 273 kts 88°
2026-05-05 05:44 39.77521 116.19070 6254 ft 272 kts 88°
2026-05-05 05:45 39.77819 116.22324 5924 ft 270 kts 88°
2026-05-05 05:45 39.78040 116.24740 5638 ft 270 kts 88°
2026-05-05 05:45 39.78182 116.26347 5431 ft 269 kts 89°
2026-05-05 05:45 39.78396 116.28763 5170 ft 268 kts 88°
2026-05-05 05:46 39.78648 116.31935 4912 ft 258 kts 94°
2026-05-05 05:46 39.78496 116.33437 4848 ft 239 kts 117°
2026-05-05 05:46 39.77617 116.35033 4768 ft 204 kts 153°
2026-05-05 05:46 39.76394 116.35635 4702 ft 181 kts 177°
2026-05-05 05:47 39.75150 116.35861 4625 ft 181 kts 179°
2026-05-05 05:47 39.73904 116.36074 4420 ft 180 kts 179°
2026-05-05 05:47 39.72661 116.36278 4148 ft 180 kts 180°
2026-05-05 05:47 39.71416 116.36476 3878 ft 180 kts 179°
2026-05-05 05:48 39.70594 116.36610 3710 ft 180 kts 179°
2026-05-05 05:48 39.69484 116.36789 3470 ft 179 kts 179°
2026-05-05 05:48 39.68332 116.36971 3254 ft 176 kts 179°
2026-05-05 05:48 39.67148 116.37161 3054 ft 171 kts 178°
2026-05-05 05:49 39.65998 116.37344 2814 ft 167 kts 178°
2026-05-05 05:49 39.64860 116.37523 2605 ft 162 kts 178°
2026-05-05 05:49 39.63750 116.37701 2386 ft 159 kts 178°
2026-05-05 05:49 39.62656 116.37875 2181 ft 160 kts 177°
2026-05-05 05:50 39.61540 116.38054 1979 ft 163 kts 176°
2026-05-05 05:50 39.60422 116.38232 1766 ft 160 kts 175°
2026-05-05 05:50 39.59355 116.38404 1575 ft 150 kts 176°
2026-05-05 05:50 39.58341 116.38564 1379 ft 143 kts 174°
2026-05-05 05:51 39.57371 116.38720 1178 ft 137 kts 175°
2026-05-05 05:51 39.56451 116.38866 1006 ft 130 kts 174°
2026-05-05 05:51 39.55596 116.39004 838 ft 128 kts 175°
2026-05-05 05:51 39.54774 116.39132 712 ft 132 kts 174°
2026-05-05 05:52 39.54163 116.39229 591 ft 135 kts 173°
2026-05-05 05:52 39.53509 116.39335 462 ft 134 kts 174°
2026-05-05 05:52 39.52599 116.39494 308 ft 132 kts 172°
2026-05-05 05:52 39.51677 116.39638 135 ft 135 kts 175°
2026-05-05 05:53 39.50774 116.39778 103 ft 121 kts 174°
2026-05-05 05:53 39.50245 116.39861 105 ft 43 kts 167°
2026-05-05 05:53 39.50052 116.39962 105 ft 28 kts 148°
2026-05-05 05:53 39.49971 116.40032 102 ft 11 kts 146°
2026-05-05 05:54 39.49889 116.40102 97 ft 17 kts 147°
2026-05-05 05:54 39.49773 116.40156 95 ft 19 kts 172°
2026-05-05 05:54 39.49638 116.40181 94 ft 17 kts 172°
2026-05-05 05:54 39.49582 116.40196 97 ft 0 kts 147°
2026-05-05 05:55 39.49580 116.40198 98 ft 2 kts 144°
2026-05-05 05:55 39.49578 116.40205 97 ft 0 kts 117°
2026-05-05 05:56 39.49578 116.40206 97 ft 1 kts 117°
2026-05-05 05:56 39.49571 116.40255 95 ft 10 kts 90°
2026-05-05 05:57 39.49575 116.40309 94 ft 0 kts 73°
2026-05-05 05:57 39.49583 116.40317 95 ft 6 kts 39°
2026-05-05 05:57 39.49689 116.40293 94 ft 29 kts 346°
2026-05-05 05:57 39.49898 116.40252 96 ft 31 kts 354°
2026-05-05 05:58 39.50120 116.40219 94 ft 32 kts 353°
2026-05-05 05:58 39.50345 116.40183 95 ft 34 kts 353°
2026-05-05 05:58 39.50583 116.40146 94 ft 35 kts 353°
2026-05-05 05:58 39.50829 116.40107 92 ft 33 kts 353°
2026-05-05 05:59 39.50894 116.40097 94 ft 0 kts 355°
2026-05-05 05:59 39.50931 116.40091 92 ft 12 kts 354°
2026-05-05 05:59 39.50999 116.40196 95 ft 21 kts 83°
2026-05-05 05:59 39.51010 116.40394 92 ft 23 kts 96°
2026-05-05 06:00 39.50988 116.40543 95 ft 10 kts 112°
2026-05-05 06:00 39.50989 116.40581 92 ft 2 kts 71°
2026-05-05 06:00 39.51008 116.40607 95 ft 7 kts 28°
2026-05-05 06:00 39.51059 116.40636 93 ft 4 kts 23°
2026-05-05 06:01 39.51064 116.40639 93 ft 0 kts 23°